{"data":{"norad_id":45164,"epoch":"2026-09-19T15:24:45.192672Z","epoch_age_seconds":88471,"freshness":"FRESH","line1":"1 45164U 20008AK  26262.64218973 -.00000163  00000+0 -50399-3 0  9998","line2":"2 45164  87.8906  17.4740 0001853 110.4908 249.6419 13.10369528320258","mean_motion":13.10369528,"eccentricity":0.0001853,"inclination_deg":87.8906,"raan_deg":17.474,"arg_perigee_deg":110.4908,"mean_anomaly_deg":249.6419,"bstar":-0.00050399,"rev_number":32025,"period_min":109.89266533066,"perigee_km":1220.3216124244,"apogee_km":1223.1381230856,"semimajor_km":7599.866867755,"source":"CELESTRAK","updated_at":"2026-09-20T09:00:44.551723Z"}}